User: anonymous   Login
Location: Oakhurst
(33.6448°N, 111.9543°W)
Time: 19:54:53
(UTC+00:00)
Language:

BEESAT 2 - Orbit

View from above orbital plane
View from above orbital plane
View from above satellite
View from above satellite

Ground track
Ground track

The orbit data is extracted from the following two-line orbital elements,

1 39136U 13015G   21204.13010391  .00002026  00000-0  10574-3 0  9999
2 39136  64.8749  92.7513 0022951 242.0371 117.8433 15.18869400455886
Epoch (UTC): 23 July 2021 03:07:20
Eccentricity: 0.0022951
inclination: 64.8749°
perigee height: 493 km
apogee height: 525 km
right ascension of ascending node: 92.7513°
argument of perigee: 242.0371°
revolutions per day: 15.18869400
mean anomaly at epoch: 117.8433°
orbit number at epoch: 45588

The dashed part of the orbit path shows where the satellite is in the earth's shadow,  

DLR